Location: Banff
(51.1667°N, 115.5667°W)
Time: 10:39:17
(UTC+00:00)

Explorer 7 - Pass Details

Date: 02 December 2020
Orbit: 484 x 678 km, 50.3° (Epoch: 19 January)

Event Time Altitude Azimuth Distance (km) Brightness Sun altitude
Exits shadow 11:21:08 10° 95° (E) 1,813 10.1 -37.3°
Drops below altitude 10° 11:21:11 10° 95° (E) 1,833 10.2 -37.3°
Sets 11:23:21 0° 94° (E) 2,694 11.2 -37.0°
